sat.trackr.live / text

‹ back to catalog

SUPERBIRD-C2

NORAD 33274 · 2008-038A

PAYLOAD ACTIVE UNKNOWN

§ Identity

Operator
Country
JPN
Launch date
2008-08-14
Launch site
FRGUI
Launch vehicle
Mass (kg)
RCS (m²)
12.62

Purposes: comms

External: N2YO · Heavens-Above · Gunter

§ Orbital elements

Epoch: 2026-05-25T04:23:13.559712Z

Period
1,436.11 min
Inclination
2.3040°
Eccentricity
0.0005655
Mean motion
1.00270728 rev/d
Perigee alt
35,763.0 km
Apogee alt
35,810.7 km
Semi-major
42,165.0 km
B*
0.0000e+0
RAAN
81.5374°
Arg perigee
15.9264°
Mean anomaly
347.1089°
Rev number
10,550

§ Raw data

SUPERBIRD-C21 33274U 08038A   26145.18279583 -.00000308  00000+0  00000+0 0  99992 33274   2.3040  81.5374 0005655  15.9264 347.1089  1.00270728105506

JSON: /api/v1/satellites/33274 · /tle

For live sub-satellite position, see the globe view (requires WebGL).

§ Visibility from observer

Set your observer location to see the next 7 days of passes ≥ 10°. The values pass through the URL so the page stays shareable.

No JS? Fill the form by hand. The geolocation button needs JavaScript.